Regional Weather Roundup
Issued by NWS San Angelo, TX

Home | Current Version | Previous Version | Text Only | Print | Product List | Glossary On
Versions: 1 2 3 4 5 6 7 8 9 10 11 12 13 14 15 16 17 18 19 20 21 22 23 24 25 26 27 28 29 30 31 32 33 34 35 36 37 38 39 40 41 42 43 44 45 46 47 48 49 50
000
ASUS44 KSJT 230010
RWRSJT
WEST CENTRAL TEXAS REGIONAL WEATHER ROUNDUP
NATIONAL WEATHER SERVICE SAN ANGELO TX
700 PM CDT FRI MAY 22 2015

NOTE: "FAIR" INDICATES FEW OR NO CLOUDS BELOW 12,000 FEET WITH NO
SIGNIFICANT WEATHER AND/OR OBSTRUCTIONS TO VISIBILITY.

TXZ049-054-064>066-071>073-076>078-098-099-113-114-127-128-139-140-
154-155-168>170-230100
...LOCATIONS ACROSS WEST CENTRAL TEXAS...

CITY           SKY/WX    TMP DP  RH WIND       PRES   REMARKS
SAN ANGELO     MOSUNNY   79  67  66 SE13      29.99F
ABILENE        CLOUDY    73  66  78 SE13      30.04F
DYESS AFB      MOSUNNY   73  63  68 SE10      30.01F
JUNCTION       SUNNY     79  66  64 S10       30.02F
SWEETWATER     CLOUDY    72  67  84 NE9       30.05F
BROWNWOOD      MOSUNNY   72  68  88 S9        30.05F
COLEMAN        CLOUDY    74  68  82 SE10      30.04F
SONORA         MOSUNNY   79  64  61 SE14      30.05F
OZONA          NOT AVBL
BRADY          MOSUNNY   75  70  83 SE9       30.04S
$$

TEXAS PANHANDLE/OKLAHOMA PANHANDLE

CITY           SKY/WX    TMP DP  RH WIND       PRES   REMARKS
AMARILLO       PTSUNNY   63  57  81 SE20      30.04F
BORGER         CLOUDY    64  55  72 SE14G20   30.03F
CANADIAN       CLOUDY    62  58  88 S12       30.05F
DALHART        MOSUNNY   68  54  60 S17G25    30.00F
DUMAS          PTCLDY    65  54  66 S15G25    30.02S
GUYMON         NOT AVBL
HEREFORD       PTCLDY    65  57  75 MISG      30.04S
PAMPA          CLOUDY    58  56  93 SE13      30.06F
PERRYTON       CLOUDY    61  56  83 S18       30.04F
$$

SOUTHERN PANHANDLE/SOUTH PLAINS/ROLLING PLAINS

CITY           SKY/WX    TMP DP  RH WIND       PRES   REMARKS
LUBBOCK        CLOUDY    62  59  90 SE12      30.04F
SNYDER         CLOUDY    67  64  90 E12       30.03F
CHILDRESS      CLOUDY    64  59  83 SE12      30.06F
SEMINOLE       CLOUDY    66  62  88 E12       30.02F FOG
$$

PERMIAN BASIN

CITY           SKY/WX    TMP DP  RH WIND       PRES   REMARKS
MIDLAND        PTSUNNY   79  64  60 SE17      29.98S
ODESSA         PTSUNNY   78  62  57 SE13      29.98F
WINK           MOSUNNY   82  62  50 E20G25    29.91F
$$

FAR WEST/SOUTHWEST MOUNTAINS/TRANS PECOS

CITY           SKY/WX    TMP DP  RH WIND       PRES   REMARKS
ALPINE         MOCLDY    76  63  62 E13G23    30.07R
DRYDEN           N/A     77  66  68 E9        29.94F
EL PASO        PTSUNNY   89  13   6 SW16G22   29.85F
FORT STOCKTON  PTSUNNY   74  63  68 SE17G30   29.96R
GUADALUPE PASS MOSUNNY   68  57  68 NE24      30.02F
MARFA          MOSUNNY   81  55  41 E23G29    30.01S
PECOS          PTCLDY    79  65  60 E16       29.91F
$$

DALLAS/FORT WORTH METROPLEX

CITY           SKY/WX    TMP DP  RH WIND       PRES   REMARKS
DFW AIRPORT    CLOUDY    67  63  87 E5        30.07F
FTW MEACHAM    CLOUDY    67  62  84 NE8       30.07F
DAL-EXECUTIVE  CLOUDY    71  64  78 E8        30.08F
GRAND PRAIRIE  NOT AVBL
ADDISON        CLOUDY    70  63  78 NE8       30.11
MESQUITE       CLOUDY    72  64  78 E3        30.09F
LANCASTER      CLOUDY    73  64  73 E6        30.08F
$$

NORTH CENTRAL TEXAS

CITY           SKY/WX    TMP DP  RH WIND       PRES   REMARKS
SHRMAN/DENISON CLOUDY    60  60  99 E5        30.13R FOG
GAINESVILLE    CLOUDY    59  58  97 NE7       30.13F
BRIDGEPORT     CLOUDY    61  61 100 E5        30.11F
DENTON         CLOUDY    63  61  93 NE7       30.09F
WAXAHACHIE     CLOUDY    72  67  85 E3        30.09S
GRANBURY       CLEAR     71  67  84 E3        30.08F
$$

WESTERN NORTH TEXAS

CITY           SKY/WX    TMP DP  RH WIND       PRES   REMARKS
WICHITA FALLS  CLOUDY    59  57  93 E14       30.09F
VERNON         CLOUDY    61  56  84 SE12      30.08F
BRECKENRIDGE   CLOUDY    69  67  95 E8        30.05F FOG
COMANCHE       CLOUDY    71  70  95 SE8       30.07S
$$

CENTRAL AND SOUTH CENTRAL TEXAS

CITY           SKY/WX    TMP DP  RH WIND       PRES   REMARKS
AUSTIN/BERGSTM PTSUNNY   78  72  81 SE9       30.02F
WACO           CLOUDY    75  67  76 SE10      30.06F
HILLSBORO      CLOUDY    72  66  82 SE8       30.08F
TEMPLE         CLOUDY    73  66  78 SE9       30.05F
KILLEEN-GRAY   CLOUDY    71  69  92 E7        30.05F
FORT HOOD      CLOUDY    72  69  89 SE8       30.05F
GEORGETOWN     CLOUDY    75  72  88 VRB5      30.04F
LAGO VISTA     CLOUDY    75  71  87 E8        30.07F
SAN MARCOS     PTSUNNY   81  72  74 SE14      30.03F
NEW BRAUNFELS  CLOUDY    79  73  82 SE13      30.01S
RANDOLPH AFB   MOSUNNY   81  73  77 SE13      30.01F
SAN ANTONIO    LGT RAIN  78  72  81 SE16      30.01F
STINSON        MOSUNNY   80  72  76 SE15      29.98F
PLEASANTON     NOT AVBL
LA GRANGE      PTSUNNY   80  73  80 SE9       30.03F
GIDDINGS       MOCLDY    77  70  79 E5        30.09F
$$

EAST TEXAS

CITY           SKY/WX    TMP DP  RH WIND       PRES   REMARKS
PARIS          PTSUNNY   63  57  82 E10       30.15F
CLARKSVILLE    NOT AVBL
TYLER          MOSUNNY   77  64  64 E10       30.10F
LONGVIEW       PTSUNNY   75  63  66 E8        30.11F
PALESTINE      CLOUDY    77  69  75 E6        30.10F
NACOGDOCHES    PTSUNNY   73  66  78 S6        30.12S
$$

TEXAS HILL COUNTRY AND EDWARDS PLATEAU

CITY           SKY/WX    TMP DP  RH WIND       PRES   REMARKS
LLANO          MOCLDY    75  72  88 SE6       30.07F
HORSESHOE BAY  CLOUDY    75  71  87 E6        30.05F
KERRVILLE      MOSUNNY   78  72  81 SE6       30.03F
FREDERICKSBRG  PTSUNNY   75  70  83 CALM      30.04S
ROCKSPRINGS    PTCLDY    75  68  78 SE9       30.06F
HONDO          SUNNY     83  71  67 SE14      30.00F
UVALDE         PTCLDY    82  72  72 SE6       29.98F
DEL RIO        MOSUNNY   84  69  60 E15G23    29.93F
$$

SOUTHEAST TEXAS

CITY           SKY/WX    TMP DP  RH WIND       PRES   REMARKS
COLLEGE STN    CLOUDY    78  69  73 SE10      30.07F
CALDWELL       MOCLDY    75  72  88 MISG      30.09F
CROCKETT       NOT AVBL
BRENHAM        RAIN      78  71  79 SE6       30.08F
HUNTSVILLE     CLOUDY    77  68  73 SE3       30.10S
CONROE         PTSUNNY   73  67  81 E5        30.11F
HOUSTON BUSH   PTSUNNY   76  69  79 E12       30.09F
HOUSTON HOBBY  CLOUDY    78  71  79 E12       30.07F
PERLAND        PTSUNNY   79  72  79 E10       30.09F
WHARTON        MOCLDY    79  73  81 E12       30.06S
$$

THE UPPER TEXAS COAST

CITY           SKY/WX    TMP DP  RH WIND       PRES   REMARKS
ORANGE         CLOUDY    78  68  72 E3        30.13S
PORT ARTHUR    LGT RAIN  78  70  76 E9        30.10F
GALVESTON      CLOUDY    79  75  87 E15       30.08F
ANGLETON       PTSUNNY   76  74  93 E8        30.06F
BAY CITY       MOCLDY    79  76  89 E8        30.05F
$$

TEXAS COASTAL BEND, RIO GRANDE PLAINS DEEP SOUTH TEXAS

CITY           SKY/WX    TMP DP  RH WIND       PRES   REMARKS
VICTORIA       CLOUDY    78  75  90 E13       30.03S
BEEVILLE       FAIR      82  78  87 SE10G17   29.99S
ROCKPORT       CLOUDY    82  75  79 SE17      29.99F
PORT ARANSAS   CLOUDY    81  76  85 SE14      30.00F
PORT LAVACA    CLOUDY    79  75  89 E14       30.03S
CORPUS CHRISTI CLOUDY    82  75  79 SE18      29.99F
KINGSVILLE NAS CLOUDY    82  78  88 SE14      29.97F
COTULLA        MOSUNNY   88  71  57 SE9       29.94F
LAREDO         PTSUNNY   87  71  58 S13       29.94F
BROWNSVILLE    MOSUNNY   84  74  71 S14       29.97F
PORT ISABEL    MOSUNNY   84  74  71 SE15      29.96F
HEBBRONVILLE     N/A     85  73  67 SE14      29.96F
MCALLEN        MOSUNNY   87  74  64 SE15      29.95F
WESLACO        MOSUNNY   85  72  65 SE12      29.95F
FALFURRIAS     MOCLDY    83  75  79 SE7       29.95F
EDINBURG       PTCLDY    87  73  62 SE12      29.95F
$$


USA.gov is the U.S. government's official web portal to all federal, state and local government web resources and services.